Weather History for San Jose, Costa Rica

Change the Weather History Date:

Saturday, April 19, 2014

  Actual Average Record
Temperature  
Mean Temperature 78 °F -  
Max Temperature 87 °F 82 °F 91 °F (1998)
Min Temperature 68 °F 65 °F 60 °F (2007)
Cooling Degree Days 12    
Growing Degree Days 28 (Base 50)    
Moisture  
Dew Point 57 °F    
Average Humidity 53    
Maximum Humidity 73    
Minimum Humidity 25    
Precipitation  
Precipitation 0.00 in 0.26 in - ()
Sea Level Pressure  
Sea Level Pressure 29.94 in    
Wind  
Wind Speed 10 mph ()    
Max Wind Speed 23 mph    
Max Gust Speed 26 mph    
Visibility 8.0 miles    
Events      
Averages and records for this station are not official NWS values.
T = Trace of Precipitation, MM = Missing Value Source: Averaged Metar Reports

Daily Weather History Graph

Daily Weather History Graph

Search for Another Location

Airport:

Trip Planner

Search our weather history database for the weather conditions in past years. The results will help you decide how hot, cold, wet, or windy it might be!

Date:

Astronomy

Apr. 19, 2014 Rise Set
Actual Time 5:24 AM CST 5:47 PM CST
Civil Twilight 5:03 AM CST 6:08 PM CST
Nautical Twilight 4:38 AM CST 6:34 PM CST
Astronomical Twilight 4:12 AM CST 6:59 PM CST
Moon 10:04 PM CST (4/19) 9:06 AM CST (4/19)
Length of Visible Light 13h 05m
Length of Day
12h 22m
Waning Gibbous, 78% of the Moon is Illuminated
Apr 19
Waning Gibbous
Apr 22
Last Quarter
Apr 29
New
May 6
First Quarter
May 14
Full

Hourly Weather History & Observations

Time (CST) Temp. Heat Index Dew Point Humidity Pressure Visibility Wind Dir Wind Speed Gust Speed Precip Events Conditions
12:00 AM 70 °F - 56 °F 52% 29.81 in 12 mi East 9.2 mph - -  
12:00 AM 69.8 °F - 57.2 °F 64% 29.98 in - East 9.2 mph - N/A   Clear
1:00 AM 69.8 °F - 57.2 °F 64% 29.97 in - East 11.5 mph - N/A   Clear
2:00 AM 69.8 °F - 57.2 °F 64% 29.96 in - East 9.2 mph - N/A   Clear
3:00 AM 70 °F - 57 °F 55% 29.82 in 12 mi ENE 8.1 mph - -  
3:00 AM 69.8 °F - 57.2 °F 64% 29.96 in - ENE 8.1 mph - N/A   Clear
4:00 AM 69.8 °F - 57.2 °F 64% 29.97 in - East 9.2 mph - N/A   Clear
5:00 AM 69.8 °F - 57.2 °F 64% 29.98 in - East 10.4 mph - N/A   Clear
6:00 AM 70 °F - 58 °F 58% 29.86 in 12 mi East 12.7 mph - -   Scattered Clouds
6:00 AM 69.8 °F - 59.0 °F 68% 29.99 in 6.2 mi East 12.7 mph 24.2 mph N/A   Partly Cloudy
7:00 AM 73.4 °F - 57.2 °F 57% 30.00 in 6.2 mi East 12.7 mph - N/A   Partly Cloudy
8:00 AM 77.0 °F - 55.4 °F 47% 30.02 in 6.2 mi East 11.5 mph 24.2 mph N/A   Partly Cloudy
9:00 AM 78 °F - 56 °F 35% 29.88 in 12 mi ESE 23.0 mph - -   Scattered Clouds
9:00 AM 77.0 °F - 55.4 °F 47% 30.02 in 6.2 mi ESE 11.5 mph 23.0 mph N/A   Partly Cloudy
10:00 AM 80.6 °F 80.5 °F 55.4 °F 42% 30.02 in 6.2 mi East 15.0 mph 26.5 mph N/A   Partly Cloudy
11:00 AM 82.4 °F 81.7 °F 55.4 °F 39% 30.01 in 6.2 mi East 11.5 mph - N/A   Partly Cloudy
12:00 PM 83 °F - 55 °F 28% 29.83 in 12 mi ESE 12.7 mph - -   Scattered Clouds
12:00 PM 82.4 °F 81.7 °F 55.4 °F 39% 29.99 in 6.2 mi ESE 12.7 mph - N/A   Partly Cloudy
1:00 PM 84.2 °F 83.0 °F 55.4 °F 37% 29.96 in 6.2 mi East 11.5 mph - N/A   Partly Cloudy
2:00 PM 86.0 °F 84.5 °F 55.4 °F 35% 29.93 in 6.2 mi East 11.5 mph - N/A   Partly Cloudy
3:00 PM 86 °F - 56 °F 25% 29.77 in 12 mi East 15.0 mph - -   Scattered Clouds
3:00 PM 86.0 °F 84.5 °F 55.4 °F 35% 29.92 in 6.2 mi East 15.0 mph - N/A   Partly Cloudy
4:00 PM 82.4 °F 82.0 °F 57.2 °F 42% 29.93 in 6.2 mi East 11.5 mph - N/A   Partly Cloudy
5:00 PM 78.8 °F - 59.0 °F 51% 29.95 in 6.2 mi SE 11.5 mph - N/A   Scattered Clouds
6:00 PM 75 °F - 59 °F 49% 29.82 in 12 mi ESE 11.5 mph - -   Partly Cloudy
6:00 PM 75.2 °F - 59.0 °F 57% 29.97 in 6.2 mi ESE 11.5 mph - N/A   Scattered Clouds
7:00 PM 73.4 °F - 60.8 °F 65% 29.99 in 6.2 mi East 11.5 mph - N/A   Scattered Clouds
8:00 PM 71.6 °F - 60.8 °F 69% 30.00 in 6.2 mi East 11.5 mph - N/A   Partly Cloudy
9:00 PM 71 °F - 61 °F 63% 29.87 in 12 mi East 10.4 mph - -   Scattered Clouds
9:00 PM 71.6 °F - 60.8 °F 69% 30.01 in 6.2 mi East 10.4 mph - N/A   Partly Cloudy
10:00 PM 69.8 °F - 59.0 °F 68% 30.01 in 6.2 mi East 12.7 mph 24.2 mph N/A   Partly Cloudy
11:00 PM 69.8 °F - 60.8 °F 73% 30.01 in 6.2 mi East 10.4 mph - N/A   Partly Cloudy